Regional Weather Roundup
Issued by NWS Charleston, SC

Current Version | Previous Version | Text Only | Print | Product List | Glossary Off
Versions: 1 2 3 4 5 6 7 8 9 10 11 12 13 14 15 16 17 18 19 20 21 22 23 24 25 26 27 28 29 30 31 32 33 34 35 36 37 38 39 40 41 42 43 44 45 46 47 48 49 50

000
ASUS42 KCHS 300712
RWRCHS

REGIONAL WEATHER ROUNDUP
NATIONAL WEATHER SERVICE CHARLESTON SC
300 AM EDT TUE JUN 30 2015

NOTE: "FAIR" INDICATES FEW OR NO CLOUDS BELOW 12,000 FEET WITH NO
SIGNIFICANT WEATHER AND/OR OBSTRUCTIONS TO VISIBILITY.

NOT ALL STATIONS ARE QUALITY CONTROLLED BY THE NATIONAL
WEATHER SERVICE. USE DATA WITH CAUTION...ESPECIALLY
DEWPOINT OBSERVATIONS.

SCZ027-030-031-034>040-042>050-300800-
...SOUTHEAST SOUTH CAROLINA...

CITY           SKY/WX    TMP DP  RH WIND       PRES   REMARKS
N CHARLESTON   PTCLDY    77  71  82 SW9       29.98F
WATERFRONT PAR   N/A     78  74  87 SW6       29.96S
MOUNT PLEASANT FAIR      77  73  88 SW5       29.99S
JOHNS ISLAND   FAIR      77  73  88 SW5       29.99S
PINOPOLIS      NOT AVBL
MONCKS CORNER  FAIR      75  68  78 SW3       29.98S
SUMMERVILLE    NOT AVBL
BEAUFORT MCAS  CLEAR     75  69  81 SW6       30.00S
BEAUFORT ARPT  FAIR      77  72  83 SW6       30.00S
HILTON HEAD IS PTCLDY    77  72  83 SW7       30.02S
WALTERBORO     SUNNY     72  64  78 SW6       30.00S
ALLENDALE      FAIR      72  66  83 CALM      29.99S

...SOUTHERN MIDLANDS AND PEE DEE...

CITY           SKY/WX    TMP DP  RH WIND       PRES   REMARKS
GEORGETOWN     NOT AVBL
KINGSTREE      NOT AVBL
ORANGEBURG     CLEAR     70  63  78 SW8       29.98F
BARNWELL       FAIR      73  66  78 SW6       29.99F
AIKEN          FAIR     N/A N/A N/A SW6       30.02S
MANNING        FAIR      73  63  68 SW3       29.97S
COLUMBIA       CLEAR     72  61  68 W5        29.96S
SUMTER         CLEAR     72  61  70 SW2       29.95S
FLORENCE       CLEAR     72  64  76 SW7       29.95F
MYRTLE BEACH   CLEAR     75  70  83 SW8       29.98F
N MYRTLE BEACH CLEAR     76  69  79 SW7       29.96F

$$

GAZ063-065-086>088-099>101-113>116-118-119-134>141-150-300800-
...SOUTHEAST GEORGIA...

CITY           SKY/WX    TMP DP  RH WIND       PRES   REMARKS
SAVANNAH ARPT  CLEAR     74  68  81 SW8       30.02S
HUNTER AAF     PTCLDY    74  71  90 SW7       29.99F
FORT STEWART   PTCLDY    71  67  89 SE2       30.00S
STATESBORO     CLEAR     74  69  83 SW5       30.00F
SYLVANIA       SUNNY     72  69  92 CALM      30.01S
CLAXTON        FAIR      68  68 100 CALM      30.01F

...CSRA...CENTRAL AND FAR SOUTHEAST GEORGIA...

CITY           SKY/WX    TMP DP  RH WIND       PRES   REMARKS
THOMSON        CLEAR     70  66  87 S3        30.04S
AUGUSTA-BUSH   CLEAR     74  63  68 SW9       29.98S
AUGUSTA-DANIEL CLEAR     74  62  66 CALM      29.99F
SWAINSBORO     FAIR      73  68  83 CALM      30.02S
VIDALIA        CLEAR     72  66  83 SW3       30.02S
EASTMAN        FAIR      74  68  80 SW3       30.05R
HAZLEHURST     FAIR      74  70  86 CALM      30.01F
ALMA           CLEAR     70  67  90 SW3       30.03S
WAYCROSS       CLEAR     73  71  93 CALM      30.03F
JESUP          FAIR      70  68  94 CALM      30.03S
BAXLEY         FAIR      72  68  88 CALM      30.02F
BRUNSWICK      MOCLDY    72  72 100 CALM      30.03F
SAINT SIMONS   MOCLDY    76  73  91 SW5       30.02S

$$

SCZ027-028-034-036>038-045-046-048>050-GAZ119-141-300800-
...LAKE AND SUPPLEMENTAL COASTAL OBSERVATIONS...

STATION/POSITION TIME  TEMP    WIND        PRES    WAVE   SWELL
                       AIR SEA DIR/SP/G            HT/PER HT/PER/DIR
                 (UTC) (F)     (DEG/KT/KT) (MB)    (FT/S) (FT/S/D)
UPR LAKE MARION  NOT AVBL
WINYAH BAY       0545   77     230/  6     1014.0
LAKE MURRAY      0600   80     250/  9/ 12 1013.9F
ACE BASIN NERRS  NOT AVBL
FORT PULASKI     0600   77 84  220/  4/  5 1016.7F
SAPELO ISLAND    0600   78     220/  6     1017.0S

$$

ANZ835-935-AMZ111-154-330-350-352-354-370-450-454-472-300800-
...C-MAN AND BUOY OBSERVATIONS...

STATION/POSITION TIME  TEMP    WIND        PRES    WAVE   SWELL
                       AIR SEA DIR/SP/G            HT/PER HT/PER/DIR
                 (UTC) (F)     (DEG/KT/KT) (MB)    (FT/S) (FT/S/D)
BUOY 41004       0650   81 83  240/ 16/ 17 1014.9F   4/ 7   3/ 7
BUOY 41008       0650   79 79  220/ 10/ 12 1016.5F   2/ 8   2/110/ 8
FOLLY BEACH CMAN 0600   80     230/ 10/ 14 1015.5F
CAPERS NEARSHORE 0608   81     250/ 16/ 21 1015.7F
FRIPP NEARSHORE  NOT AVBL


STATION/POSITION TIME  TEMP    WIND        PRES    WAVE   SWELL
                       AIR SEA DIR/SP/G            HT/PER HT/PER/DIR
                 (UTC) (F)     (DEG/KT/KT) (MB)    (FT/S) (FT/S/D)
5E ST. MARYS GA  0621      78                N/A     2/ 8
FRYING PAN BUOY  0650   81 80  240/ 17/ 19 1014.8F   4/ 7   2/150/ 8
BUOY 41025       0650   79 80  240/ 10/ 12 1014.2F   4/ 8   3/170/ 8
CAPE LOOKOUT NC  0600   79     230/  8/ 10 1014.2F
BUOY 41002       0650   77 80  200/ 16/ 19 1017.5F   5/ 6   3/150/ 9
BUOY 41010       0620   81 84  240/ 14/ 16 1017.6F
ST AUGUSTINE FL  0700   74 74  240/  5/  8 1017.9F


$$



USA.gov is the U.S. government's official web portal to all federal, state and local government web resources and services.